Regional Weather Roundup
Issued by NWS

Home | Current Version | Previous Version | Graphics & Text | Print | Product List | Glossary On
Versions: 1 2 3 4 5 6 7 8 9 10 11 12 13 14 15 16 17 18 19 20 21 22 23 24 25 26 27 28 29 30 31 32 33 34 35 36 37 38 39 40 41 42 43 44 45 46 47 48 49 50
000
ASUS43 KLMK 221502
RWRKY
KENTUCKY REGIONAL WEATHER ROUNDUP
NATIONAL WEATHER SERVICE LOUISVILLE KY
1100 AM EDT TUE APR 22 2014

NOTE "FAIR" INDICATES FEW OR NO CLOUDS BELOW 12,000 FEET
WITH NO SIGNIFICANT WEATHER AND/OR OBSTRUCTIONS TO VISIBILITY.

KYZ001>023-026-027-061>063-070>075-221600-
WESTERN AND SOUTH CENTRAL KENTUCKY

CITY           SKY/WX    TMP DP  RH WIND       PRES   REMARKS
PADUCAH        SUNNY     68  54  60 N10       29.94R
HENDERSON      SUNNY     63  50  63 N13       29.92S
OWENSBORO      MOSUNNY   65  61  87 NW10      29.91R
HOPKINSVILLE   CLOUDY    66  66  99 N8        29.91R
BOWLING GREEN  CLOUDY    67  59  75 NW7       29.89S
GLASGOW        NOT AVBL
$$

KYZ024-025-028>034-038-045-046-053-221600-
NORTH CENTRAL KENTUCKY

CITY           SKY/WX    TMP DP  RH WIND       PRES   REMARKS
LOUISVILLE/SDF CLOUDY    66  57  72 NW8       29.86S
LOUISVILLE/LOU CLOUDY    67  57  70 NW7       29.86S
FORT KNOX      PTSUNNY   66  59  77 NW8       29.86S
$$

KYZ035>037-039>044-047>052-055>060-089>105-221600-
NORTHEAST KENTUCKY

CITY           SKY/WX    TMP DP  RH WIND       PRES   REMARKS
LEXINGTON      CLOUDY    65  58  78 W13       29.86R
COVINGTON      CLOUDY    64  55  72 NW12      29.83R
FRANKFORT      CLOUDY    64  56  75 NW9       29.84S
$$

KYZ054-064>069-076>088-106>120-221600-
SOUTHEAST KENTUCKY

CITY           SKY/WX    TMP DP  RH WIND       PRES   REMARKS
JACKSON        CLOUDY    62  56  80 VRB5      29.86R
LONDON         CLOUDY    63  57  81 W9        29.88R
SOMERSET       NOT AVBL
MIDDLESBORO    NOT AVBL
MONTICELLO     CLOUDY    96  83  66 SW7       29.90S HAZE    HX 121
$$




USA.gov is the U.S. government's official web portal to all federal, state and local government web resources and services.